Weather in Vegarus

Russia / Republic of Karelia     62°17′42″N   32°05′56″E
temp.,
°C
wind,
m/s
gust,
m/s
humid.,
%
clouds,
%
prec.,
mm/h
press.,
hPa
HPBL,
m
7 march, sun
sun700:00−3ssw61196100 4.2 984689
03:00−7w4118799 5.3 983454
06:00−13wnw25880 0.0 98383
09:00−13n289132 0.0 985192
12:00−9n368967 0.0 987380
15:00−6nne599383 0.3 990811
18:00−8nne61191100 0.8 9931000
21:00−11ne61487100 1.0 997814
8 march, mon
mon800:00−12nne61389100 0.1 1001723
03:00−16nne51292100 0.1 1005427
06:00−19nne5139494 0.0 1008348
09:00−20nne4119491 0.0 1011341
12:00−17nne489069 0.0 1013342
15:00−15nne478743 0.0 1014435
18:00−17n369318 0.0 1016169
21:00−21nne259736 0.0 101793
9 march, tue
tue900:00−24nne239788 0.0 101947
03:00−26nne229472 0.0 102022
06:00−28ne23940 0.0 102127
09:00−26ne23920 0.0 102399
12:00−19ene12810 0.0 1023239
15:00−15nne01740 0.0 1024340
18:00−18nw11850 0.0 102320
21:00−20nnw12880 0.0 102520
10 march, wed
wed1000:00−21nw22850 0.0 102520
03:00−22nw22860 0.0 102620
06:00−22nw22840 0.0 102620
09:00−20wnw228235 0.0 102661
12:00−15wnw2475100 0.0 1027231
15:00−12w2479100 0.0 1026286
18:00−15w228759 0.0 102520
21:00−18w228729 0.0 102520
11 march, thu
thu1100:00−19wsw22810 0.0 102520
03:00−20sw12800 0.0 102420
06:00−20s22900 0.0 102320
09:00−18s25860 0.0 1021134
12:00−12sse49740 0.0 1018390
15:00−9sse511680 0.0 1014869
18:00−10sse411830 0.0 1010587
21:00−11sse5139342 0.1 1006610